Regional Weather Roundup
Issued by NWS Wakefield, VA

Home | Current Version | Previous Version | Graphics & Text | Print | Product List | Glossary On
Versions: 1 2 3 4 5 6 7 8 9 10 11 12 13 14 15 16 17 18 19 20 21 22 23 24 25 26 27 28 29 30 31 32 33 34 35 36 37 38 39 40 41 42 43 44 45 46 47 48 49 50
000
ASUS41 KAKQ 051214
RWRAKQ

REGIONAL WEATHER ROUNDUP
NATIONAL WEATHER SERVICE WAKEFIELD VA
800 AM EDT TUE MAY 05 2015

Note: "fair" indicates few or no clouds below 12,000 feet with no
significant weather and/or obstructions to visibility. * = Denotes
station may not report precipitation (e.g., rain,snow,etc.),
thunder or fog.

VAZ042-051-052>054-056-051300-
NORTHERN VIRGINIA

CITY           SKY/WX    TMP DP  RH WIND       PRES   REMARKS
WASH NATIONAL  MOSUNNY   68  57  68 S7        30.26R
DULLES         MOSUNNY   64  56  75 S3        30.26R
FORT BELVOIR   SUNNY     63  58  84 VRB2      30.26R
QUANTICO       MOSUNNY   66  56  70 S7        30.28R
FREDERICKSBRG* SUNNY     66  57  71 S5        30.27R
STAFFORD*      SUNNY     64  53  68 SW3       30.31R
WARRENTON      SUNNY     65  58  76 S6        30.27R
CULPEPER*      NOT AVBL
MANASSAS*      NOT AVBL
LEESBURG*      PTSUNNY   64  59  82 SW3       30.27R
WINCHESTER     PTSUNNY   64  46  52 SW6       30.27R
FRONT ROYAL*   FAIR      61  54  77 CALM      30.27R
LURAY*         PTSUNNY   59  59 100 CALM      30.29R
$$

VAZ048-049-060>072-079>083-051300-
CENTRAL AND SOUTH CENTRAL VIRGINIA

CITY           SKY/WX    TMP DP  RH WIND       PRES   REMARKS
RICHMOND       MOSUNNY   65  55  70 SW8       30.30R
CHESTERFIELD*  FAIR      64  46  52 SW8       30.31R
PETERSBURG*    SUNNY     66  54  64 S7        30.31R
HANOVER        SUNNY     66  55  67 SW9       30.30R
TAPPAHANNOCK*  SUNNY     65  53  64 S6        30.29R
QUINTON*       PTSUNNY   64  55  73 S6        30.30R
CHARLOTTSVILLE SUNNY     62  55  77 S5        30.27R
GORDONSVILLE*  FAIR      61  55  78 SW5       30.28R
ORANGE*        SUNNY     63  55  77 CALM      30.29R
LOUISA*        SUNNY     64  55  72 SW3       30.27R
BUMPASS*       FAIR      64  55  74 SW7       30.28R
FARMVILLE*     SUNNY     64  56  76 SW7       30.29R
CREWE*         FAIR      64  55  71 SW7       30.30R
FORT PICKETT*  FAIR     N/A N/A N/A SW12      30.31R
CHASE CITY*    FAIR      65  58  79 CALM      30.32R
CLARKSVILLE*   FAIR      61  54  77 SW6       30.32R
SOUTH HILL*    SUNNY     60  54  80 S8        30.39R
LAWRENCEVILLE* FAIR      63  55  76 SW8       30.33R
EMPORIA*       SUNNY     61  54  77 CALM      30.35R
$$

VAZ088>098-051300-
SOUTHEAST VIRGINIA

CITY           SKY/WX    TMP DP  RH WIND       PRES   REMARKS
NORFOLK        MOSUNNY   67  49  52 SW13      30.32R
VIRGINIA BEACH PTSUNNY   68  51  54 S5        30.33R
NORFOLK NAVAL  PTSUNNY   70  50  49 SW9       30.34R
WEST POINT*    SUNNY     69  51  52 S7        30.32R
SALUDA*        FAIR      67  52  58 SW8G18    30.29R
NEWPORT NEWS   SUNNY     70  51  51 SW13      30.32R
LANGLEY AFB    SUNNY     67  51  55 SW18      30.31R
FORT EUSTIS    SUNNY     66  52  61 VRB7      30.30R
WILLIAMSBURG*  SUNNY     68  54  60 SW6       30.33R
HR EXEC AP*    FAIR      64  52  63 SW9       30.35R
FRANKLIN*      SUNNY     63  51  67 S6        30.35R
WAKEFIELD      SUNNY     65  53  65 SW9       30.33R
$$

VAZ020-022-025-037-045-051300-
WEST CENTRAL AND SOUTHWEST VIRGINIA

CITY           SKY/WX    TMP DP  RH WIND       PRES   REMARKS
STAUNTON*      CLOUDY    58  53  83 CALM      30.32R
WAYNESBORO*    FAIR      56  52  84 SW7       30.31R
HOT SPRINGS VA MOSUNNY   60  45  56 W10       30.38R
LYNCHBURG      SUNNY     60  55  83 S5        30.31R
DANVILLE       MOSUNNY   61  55  81 SW6       30.33R
SOUTH BOSTON*  FAIR      64  56  74 S9        30.32R
MARTINSVILLE   SUNNY     62  56  82 SW3       30.35R
ROANOKE        SUNNY     64  53  67 NW5       30.34R
BLACKSBURG     SUNNY     55  50  85 CALM      30.39R
DUBLIN*        SUNNY     56  53  92 CALM      30.37R
MARION*        SUNNY     57  50  78 SW7       30.41R
HILLSVILLE*    SUNNY     53  49  87 SW3       30.38R
RICHLANDS*     FAIR      60  44  54 W3        30.39R
WISE*          CLOUDY    61  46  59 SW5       30.39R
ABINGDON*      PTSUNNY   59  53  82 CALM      30.39R
$$

MDZ021>025-VAZ099-100-051300-
SOUTHERN MARYLAND AND THE DELMARVA PENINSULA

CITY           SKY/WX    TMP DP  RH WIND       PRES   REMARKS
PATUXENT RIVER SUNNY     66  56  70 SW16G24   30.26R
BAY BRIDGE APT   N/A    N/A N/A N/A SW6       30.25R
LEONARDTOWN    SUNNY     64  54  68 SW9       30.28R
DOVER          MOSUNNY   68  54  60 W8        30.22R
GEORGETOWN     SUNNY     67  56  67 SW13G20   30.26R
EASTON         SUNNY     68  57  68 SW7       30.29
CAMBRIDGE      SUNNY     66  55  68 SW6       30.26R
SALISBURY      SUNNY     67  54  63 SW13      30.27R
OCEAN CITY     SUNNY     68  53  58 SW13G22   30.27R
WALLOPS ISLAND SUNNY     69  51  52 SW14G22   30.29R
ACCOMACK*      SUNNY     68  46  45 SW14G20   30.30R
$$

NCZ012>017-030>032-051300-
NORTH CENTRAL AND EASTERN NORTH CAROLINA

CITY           SKY/WX    TMP DP  RH WIND       PRES   REMARKS
ROANOKE RAPIDS FAIR      61  54  77 SW6       30.34S
RALEIGH        MOSUNNY   62  56  80 SW7       30.36R
ELIZABETH CITY SUNNY     65  57  75 SW8       30.36R
AHOSKIE*         N/A     60  53  76 CALM      30.36R
EDENTON*       SUNNY     64  56  76 SW6       30.36R
CURRITUCK*     SUNNY     63  53  68 SW8       30.36R
KILL DEVIL HLS SUNNY     65  56  71 SW3       30.35R
MANTEO         MOSUNNY   63  56  80 W5        30.37R
CAPE HATTERAS  SUNNY     64  58  80 SW3       30.37R
TARBORO*       PTSUNNY   59  55  86 CALM      30.37R
GOLDSBORO      SUNNY     59  53  81 CALM      30.35R
WASHINGTON     SUNNY     60  56  85 CALM      30.37R
GREENVILLE     MOSUNNY   64  54  68 W3        30.37R
NEW BERN       SUNNY     61  57  87 CALM      30.38R
WILMINGTON     SUNNY     61  57  87 CALM      30.36R
$$

VAZ048-051300-
ELSEWHERE

CITY           SKY/WX    TMP DP  RH WIND       PRES   REMARKS
HARRISBURG PA  CLOUDY    64  57  78 CALM      30.23R
BALTIMORE      MOSUNNY   66  56  70 W5        30.24R
ANNAPOLIS      SUNNY     68  53  58 VRB6      30.24R
ANDREWS AFB    MOSUNNY   67  55  63 SW9       30.25R
PHILADELPHIA   PTSUNNY   66  54  65 W10       30.23R
HENDERSON NC   SUNNY     63  53  69 SW12      30.34R
GREENSBORO     MOSUNNY   62  55  77 SW7       30.34R
ROCKY MOUNT    MOSUNNY   60  56  86 CALM      30.36R
$$

VAZ100-051300-
MARINE

STATION/POSITION TIME  TEMP    WIND        PRES    WAVE   SWELL
                       AIR SEA DIR/SP/G            HT/PER HT/PER
                 (UTC) (F)     (DEG/KT/KT) (MB)    (FT/S) (FT/S)
BRANDYWINE LGT   1100   63 56  250/ 14/ 17 1023.6
CAPE MAY NJ      1100   62 60  230/  8/ 10 1023.4R
LEWES DE         1100   66 53  250/ 10/ 17 1023.4R
15NM E FENWICK I 1150   57 53              1024.3R   4/ 5
OCEAN-CITY-INLET 1106   66 60  250/ 12/ 15 1024.1
WACHAPREAGUE VA  1100   66 65  230/  7/ 12 1025.5R
THOMAS POINT MD  1200   63 59  190/ 10/ 10 1025.1R
GOOSES REEF MD   1200   64 59                N/A     1/ 2
COVE POINT MD    1100   65     270/ 16/ 20 1024.2R
SOLOMONS ISLAND  1106      60                N/A
BISHOPS HEAD MD  1100   65 63  220/ 10/ 13 1024.2R
PINEY POINT MD   1106          270/  5/  7   N/A
CAMBRIDGE MD     1106   64 62  210/  3/  6 1024.0R
LEWISETTA VA     1106   65 65              1024.3R
RAPPAHANNOCK LGT 1106          200/ 14/ 15 1026.1R
YORK RVR RNG VA  1106   66     240/ 14/ 16 1025.2R
YORKTOWN VA      1106   65 61  230/ 13/ 19 1025.3R
JAMESTOWN VA     1200   66 65  240/ 12/ 16 1025.6R
DOMINION TERM VA 1100   64     230/ 10/ 13 1026.3R
KIPTOPEKE VA     1106      65  210/  6/  9   N/A
CHES BAY BRIDGE  1106   64 60  210/ 13/ 16 1025.9R
CAPE HENRY VA    1100   65     230/ 11/ 15 1025.1R
CHESAPEAKE LGHT  1100   62     220/ 13/ 13 1027.2R
WILLOUBY STN VA  1106   64     220/ 14/ 16 1026.9R
S CRANEY ISL VA  1106          220/  7/ 11 1026.5R
CAPE HENRY BUOY  1128      59                N/A     2/ 8   2/12
1ST LANDING BUOY 1200      59              1047.8F   1/ 3
CAPE CHARLES BUO 1126      57                N/A     2/11   2/11
OFFSHORE WE BUOY 1111      53                N/A     3/ 8   2/ 8
64NM E OF VA BCH 1150   61 60  220/ 12/ 12 1027.2R   2/11   2/11
DUCK PIER NC     1106   64 53  220/  8/ 10 1026.6R
44056 DUCK FRF   1111      56                N/A     2/12   2/12
OREGON INLET NC  1100   65 67  220/  5/  6 1027.7R
HATTERAS NC      1106   67 64  190/  2/  4 1027.5R
DIAMOND SHLS NC  1150   73 76  190/  8/ 14 1028.5R   2/10   2/10
CAPE LOOKOUT NC  1200   69     170/  4/  4 1028.0R
$$



USA.gov is the U.S. government's official web portal to all federal, state and local government web resources and services.